QPF
0.01 0.01 0.01 0.01 0.01 0.01 0.01 0.01 0.01 0.01 0.01 0.00 0.00 0.00 0.00 0.00 0.01 0.01 0.01 0.01 0.02 0.02 0.02 0.02 0.02 0.02 0.02 0.02 0.02 0.02 0.02 0.03 0.04 0.03 0.02 0.02 0.02 0.01 0.01 0.01 0.01 0.01 0.01
0.00 0.00 0.00 0.01 0.01 0.01 0.01 0.01 0.01 0.01 0.01 0.00 0.00 0.00 0.00 0.00 0.00 0.00 0.00 0.00 0.01 0.01 0.01 0.01 0.01 0.01 0.01 0.02 0.02 0.02 0.02 0.02 0.03 0.04 0.04 0.02 0.02 0.02 0.01 0.01 0.01 0.01 0.01
0.00 0.00 0.00 0.01 0.01 0.01 0.01 0.01 0.01 0.00 0.00 0.00 0.00 0.00 0.00 0.00 0.00 0.00 0.00 0.01 0.01 0.01 0.01 0.01 0.01 0.01 0.01 0.01 0.01 0.01 0.02 0.02 0.02 0.03 0.04 0.03 0.02 0.02 0.02 0.01 0.01 0.01 0.00
0.00 0.00 0.01 0.01 0.01 0.01 0.01 0.00 0.00 0.00 0.00 0.00 0.00 0.00 0.00 0.00 0.00 0.00 0.01 0.01 0.00 0.00 0.01 0.01 0.01 0.01 0.01 0.01 0.01 0.01 0.01 0.01 0.02 0.03 0.04 0.04 0.03 0.02 0.02 0.01 0.01 0.01 0.01
0.00 0.00 0.00 0.01 0.01 0.01 0.01 0.00 0.00 0.00 0.00 0.00 0.00 0.00 0.00 0.00 0.00 0.01 0.01 0.00 0.00 0.00 0.01 0.01 0.01 0.01 0.01 0.01 0.02 0.01 0.01 0.01 0.02 0.03 0.03 0.04 0.03 0.02 0.02 0.02 0.02 0.01 0.01
0.01 0.01 0.01 0.01 0.01 0.01 0.01 0.01 0.00 0.00 0.00 0.00 0.00 0.00 0.00 0.00 0.01 0.01 0.01 0.01 0.01 0.00 0.00 0.01 0.01 0.01 0.01 0.01 0.02 0.02 0.01 0.01 0.02 0.02 0.02 0.02 0.02 0.01 0.01 0.02 0.02 0.02 0.02
0.01 0.02 0.02 0.02 0.02 0.01 0.01 0.01 0.00 0.00 0.00 0.00 0.00 0.00 0.00 0.00 0.01 0.01 0.01 0.01 0.01 0.01 0.01 0.01 0.02 0.02 0.01 0.01 0.02 0.02 0.02 0.02 0.01 0.01 0.02 0.01 0.01 0.01 0.01 0.02 0.03 0.03 0.03
0.01 0.02 0.03 0.02 0.02 0.02 0.01 0.01 0.00 0.00 0.00 0.00 0.00 0.00 0.00 0.01 0.01 0.01 0.01 0.01 0.01 0.01 0.01 0.01 0.02 0.02 0.01 0.01 0.02 0.02 0.02 0.02 0.02 0.01 0.01 0.01 0.01 0.01 0.02 0.03 0.03 0.04 0.03
0.01 0.02 0.02 0.03 0.03 0.02 0.01 0.01 0.01 0.00 0.00 0.00 0.00 0.00 0.00 0.01 0.01 0.01 0.01 0.01 0.01 0.01 0.01 0.01 0.02 0.01 0.01 0.01 0.01 0.02 0.02 0.03 0.04 0.03 0.02 0.02 0.02 0.02 0.03 0.04 0.04 0.04 0.03
0.01 0.02 0.02 0.02 0.02 0.02 0.02 0.01 0.01 0.00 0.00 0.00 0.00 0.00 0.00 0.01 0.02 0.02 0.02 0.01 0.01 0.01 0.01 0.01 0.02 0.02 0.02 0.01 0.01 0.02 0.02 0.02 0.03 0.04 0.05 0.05 0.04 0.03 0.03 0.03 0.03 0.04 0.03
0.01 0.02 0.02 0.02 0.02 0.02 0.02 0.01 0.01 0.01 0.01 0.01 0.00 0.01 0.01 0.01 0.01 0.02 0.02 0.02 0.02 0.02 0.02 0.01 0.01 0.02 0.02 0.01 0.01 0.01 0.01 0.01 0.02 0.03 0.04 0.06 0.07 0.05 0.05 0.04 0.04 0.04 0.03
0.01 0.02 0.02 0.02 0.02 0.02 0.02 0.02 0.01 0.01 0.01 0.01 0.01 0.01 0.01 0.01 0.01 0.02 0.03 0.03 0.02 0.02 0.02 0.02 0.02 0.02 0.02 0.01 0.02 0.02 0.02 0.02 0.02 0.02 0.03 0.04 0.05 0.06 0.05 0.04 0.04 0.04 0.03
0.01 0.01 0.02 0.02 0.02 0.01 0.01 0.01 0.01 0.01 0.01 0.01 0.01 0.01 0.01 0.01 0.01 0.02 0.03 0.03 0.03 0.03 0.03 0.03 0.02 0.02 0.02 0.02 0.02 0.02 0.02 0.02 0.02 0.02 0.02 0.02 0.03 0.04 0.04 0.04 0.04 0.04 0.04
0.01 0.01 0.02 0.02 0.02 0.01 0.01 0.01 0.01 0.01 0.01 0.01 0.01 0.01 0.01 0.01 0.01 0.02 0.02 0.02 0.02 0.03 0.03 0.03 0.02 0.02 0.02 0.03 0.03 0.03 0.02 0.02 0.02 0.02 0.02 0.02 0.03 0.04 0.05 0.04 0.04 0.04 0.04
0.01 0.01 0.01 0.01 0.01 0.01 0.01 0.01 0.01 0.01 0.01 0.01 0.01 0.01 0.01 0.02 0.01 0.01 0.02 0.02 0.02 0.02 0.02 0.02 0.02 0.02 0.03 0.03 0.03 0.03 0.03 0.03 0.02 0.02 0.02 0.02 0.03 0.03 0.04 0.05 0.05 0.04 0.04
0.01 0.01 0.01 0.01 0.01 0.01 0.01 0.01 0.01 0.01 0.01 0.01 0.01 0.01 0.01 0.01 0.02 0.02 0.02 0.02 0.02 0.02 0.03 0.02 0.02 0.02 0.02 0.02 0.02 0.03 0.03 0.03 0.03 0.02 0.02 0.02 0.02 0.02 0.03 0.03 0.04 0.04 0.04
0.01 0.01 0.01 0.01 0.01 0.01 0.01 0.01 0.01 0.01 0.01 0.01 0.01 0.01 0.01 0.01 0.02 0.02 0.02 0.02 0.03 0.03 0.03 0.03 0.03 0.03 0.02 0.02 0.02 0.03 0.03 0.03 0.03 0.02 0.02 0.03 0.02 0.03 0.03 0.03 0.04 0.04 0.04
0.01 0.01 0.01 0.01 0.01 0.01 0.01 0.01 0.01 0.01 0.01 0.01 0.01 0.01 0.01 0.01 0.02 0.03 0.03 0.03 0.03 0.03 0.03 0.03 0.03 0.03 0.03 0.02 0.03 0.03 0.03 0.04 0.03 0.03 0.03 0.03 0.03 0.03 0.03 0.03 0.03 0.04 0.04
0.01 0.01 0.01 0.01 0.01 0.01 0.01 0.01 0.01 0.01 0.02 0.02 0.01 0.01 0.02 0.02 0.02 0.03 0.03 0.03 0.03 0.02 0.02 0.02 0.02 0.03 0.03 0.03 0.03 0.03 0.03 0.04 0.04 0.04 0.04 0.04 0.04 0.04 0.03 0.03 0.03 0.03 0.04
0.01 0.01 0.01 0.01 0.01 0.01 0.01 0.01 0.01 0.01 0.02 0.02 0.02 0.02 0.03 0.03 0.03 0.03 0.03 0.03 0.02 0.02 0.02 0.02 0.02 0.02 0.03 0.03 0.03 0.03 0.03 0.03 0.04 0.04 0.05 0.05 0.05 0.05 0.04 0.04 0.04 0.04 0.05
0.01 0.01 0.02 0.02 0.02 0.02 0.02 0.02 0.02 0.01 0.02 0.02 0.02 0.02 0.03 0.03 0.03 0.03 0.03 0.03 0.03 0.03 0.02 0.03 0.03 0.02 0.02 0.03 0.03 0.03 0.03 0.03 0.03 0.04 0.04 0.04 0.05 0.05 0.05 0.05 0.05 0.05 0.05
0.01 0.01 0.02 0.02 0.02 0.02 0.02 0.02 0.02 0.02 0.01 0.01 0.01 0.01 0.02 0.02 0.02 0.02 0.02 0.02 0.03 0.03 0.03 0.03 0.03 0.03 0.03 0.03 0.03 0.03 0.03 0.02 0.02 0.03 0.03 0.03 0.04 0.04 0.04 0.05 0.05 0.05 0.05
0.01 0.01 0.01 0.02 0.02 0.02 0.02 0.02 0.02 0.02 0.01 0.01 0.01 0.01 0.01 0.02 0.02 0.02 0.02 0.02 0.02 0.02 0.02 0.02 0.02 0.02 0.02 0.02 0.02 0.03 0.03 0.03 0.02 0.02 0.03 0.03 0.03 0.03 0.04 0.04 0.04 0.04 0.04
0.01 0.01 0.02 0.02 0.02 0.02 0.02 0.02 0.02 0.02 0.01 0.01 0.01 0.01 0.01 0.01 0.01 0.02 0.02 0.02 0.02 0.02 0.02 0.02 0.02 0.01 0.01 0.01 0.01 0.01 0.02 0.02 0.02 0.02 0.02 0.03 0.03 0.03 0.04 0.04 0.04 0.04 0.04
0.01 0.01 0.01 0.02 0.02 0.02 0.02 0.02 0.02 0.02 0.02 0.01 0.01 0.01 0.01 0.01 0.01 0.01 0.02 0.02 0.02 0.02 0.02 0.01 0.01 0.01 0.01 0.01 0.01 0.01 0.01 0.01 0.02 0.02 0.02 0.02 0.03 0.03 0.04 0.04 0.04 0.04 0.04
0.01 0.01 0.01 0.02 0.02 0.02 0.02 0.02 0.02 0.02 0.02 0.02 0.02 0.02 0.02 0.02 0.01 0.01 0.01 0.02 0.02 0.02 0.01 0.01 0.01 0.01 0.01 0.01 0.01 0.01 0.01 0.01 0.01 0.02 0.02 0.02 0.03 0.03 0.03 0.04 0.04 0.04 0.04
MSLP
1009.72 1010.11 1010.47 1010.81 1011.12 1011.42 1011.74 1012.07 1012.45 1012.85 1013.28 1013.71 1014.12 1014.50 1014.84 1015.16 1015.47 1015.79 1016.15 1016.55 1016.98 1017.42 1017.83 1018.15 1018.34 1018.38 1018.25 1017.97 1017.60 1017.18 1016.80 1016.53 1016.43 1016.54 1016.88 1017.44 1018.17 1019.03 1019.96 1020.91 1021.82 1022.65 1023.39
1009.74 1010.05 1010.32 1010.56 1010.78 1010.99 1011.23 1011.51 1011.85 1012.25 1012.68 1013.12 1013.56 1013.95 1014.31 1014.62 1014.92 1015.22 1015.55 1015.92 1016.32 1016.74 1017.15 1017.50 1017.74 1017.86 1017.83 1017.66 1017.40 1017.10 1016.83 1016.65 1016.63 1016.80 1017.18 1017.77 1018.52 1019.40 1020.34 1021.29 1022.21 1023.05 1023.77
1009.83 1010.05 1010.23 1010.36 1010.47 1010.59 1010.75 1010.98 1011.28 1011.66 1012.09 1012.54 1012.99 1013.40 1013.76 1014.07 1014.35 1014.63 1014.92 1015.24 1015.61 1016.01 1016.41 1016.77 1017.05 1017.23 1017.29 1017.23 1017.08 1016.90 1016.73 1016.65 1016.71 1016.95 1017.38 1018.00 1018.78 1019.67 1020.63 1021.60 1022.52 1023.37 1024.11
1009.92 1010.05 1010.13 1010.17 1010.18 1010.21 1010.30 1010.47 1010.74 1011.09 1011.51 1011.96 1012.41 1012.82 1013.18 1013.49 1013.75 1014.00 1014.25 1014.55 1014.88 1015.25 1015.64 1016.02 1016.33 1016.57 1016.70 1016.73 1016.68 1016.60 1016.53 1016.53 1016.65 1016.94 1017.41 1018.07 1018.87 1019.78 1020.76 1021.75 1022.70 1023.57 1024.33
1009.91 1009.97 1009.97 1009.92 1009.86 1009.83 1009.86 1009.98 1010.21 1010.54 1010.95 1011.39 1011.83 1012.23 1012.58 1012.86 1013.11 1013.33 1013.56 1013.83 1014.14 1014.51 1014.89 1015.28 1015.63 1015.91 1016.11 1016.20 1016.22 1016.21 1016.20 1016.26 1016.43 1016.76 1017.25 1017.93 1018.75 1019.68 1020.69 1021.70 1022.69 1023.60 1024.41
1009.74 1009.74 1009.68 1009.58 1009.47 1009.40 1009.40 1009.50 1009.71 1010.03 1010.41 1010.83 1011.25 1011.63 1011.95 1012.21 1012.44 1012.64 1012.86 1013.11 1013.42 1013.79 1014.19 1014.60 1014.98 1015.29 1015.53 1015.67 1015.73 1015.76 1015.78 1015.87 1016.06 1016.40 1016.91 1017.59 1018.42 1019.37 1020.40 1021.45 1022.48 1023.44 1024.30
1009.36 1009.32 1009.23 1009.10 1008.98 1008.91 1008.91 1009.01 1009.22 1009.53 1009.89 1010.29 1010.68 1011.02 1011.31 1011.55 1011.75 1011.94 1012.15 1012.41 1012.74 1013.12 1013.54 1013.97 1014.38 1014.73 1014.99 1015.15 1015.23 1015.27 1015.31 1015.39 1015.58 1015.92 1016.42 1017.10 1017.93 1018.89 1019.94 1021.02 1022.09 1023.10 1024.02
1008.76 1008.69 1008.59 1008.47 1008.37 1008.33 1008.37 1008.50 1008.73 1009.04 1009.39 1009.77 1010.12 1010.43 1010.68 1010.89 1011.07 1011.26 1011.47 1011.75 1012.10 1012.50 1012.96 1013.42 1013.85 1014.22 1014.49 1014.67 1014.76 1014.79 1014.82 1014.89 1015.07 1015.38 1015.87 1016.53 1017.36 1018.32 1019.38 1020.48 1021.57 1022.62 1023.59
1007.95 1007.87 1007.78 1007.69 1007.65 1007.66 1007.75 1007.94 1008.20 1008.53 1008.88 1009.24 1009.57 1009.84 1010.07 1010.25 1010.42 1010.60 1010.83 1011.12 1011.50 1011.94 1012.42 1012.92 1013.37 1013.76 1014.04 1014.22 1014.31 1014.34 1014.36 1014.42 1014.57 1014.87 1015.34 1015.99 1016.80 1017.76 1018.80 1019.91 1021.01 1022.08 1023.07
1007.00 1006.91 1006.84 1006.80 1006.81 1006.89 1007.06 1007.30 1007.61 1007.97 1008.33 1008.68 1008.99 1009.24 1009.45 1009.61 1009.78 1009.97 1010.21 1010.53 1010.93 1011.41 1011.92 1012.43 1012.91 1013.31 1013.61 1013.80 1013.89 1013.92 1013.95 1014.01 1014.16 1014.46 1014.91 1015.55 1016.34 1017.28 1018.30 1019.38 1020.47 1021.53 1022.52
1005.96 1005.87 1005.81 1005.81 1005.89 1006.04 1006.28 1006.58 1006.94 1007.32 1007.70 1008.05 1008.35 1008.60 1008.79 1008.96 1009.12 1009.33 1009.59 1009.94 1010.37 1010.87 1011.40 1011.94 1012.43 1012.85 1013.17 1013.37 1013.49 1013.55 1013.59 1013.68 1013.85 1014.16 1014.62 1015.24 1016.02 1016.93 1017.92 1018.96 1020.01 1021.03 1022.00
1004.89 1004.79 1004.75 1004.79 1004.90 1005.11 1005.40 1005.75 1006.15 1006.56 1006.95 1007.31 1007.61 1007.86 1008.06 1008.24 1008.43 1008.65 1008.95 1009.32 1009.77 1010.29 1010.84 1011.39 1011.90 1012.33 1012.68 1012.92 1013.07 1013.18 1013.27 1013.40 1013.62 1013.96 1014.44 1015.06 1015.83 1016.70 1017.66 1018.65 1019.64 1020.61 1021.54
1003.85 1003.74 1003.70 1003.74 1003.89 1004.12 1004.43 1004.80 1005.22 1005.65 1006.05 1006.42 1006.74 1007.01 1007.23 1007.44 1007.65 1007.91 1008.23 1008.63 1009.10 1009.64 1010.20 1010.76 1011.28 1011.74 1012.11 1012.39 1012.60 1012.77 1012.94 1013.14 1013.42 1013.81 1014.33 1014.97 1015.72 1016.57 1017.48 1018.42 1019.35 1020.27 1021.14
1002.85 1002.72 1002.67 1002.71 1002.84 1003.07 1003.38 1003.75 1004.16 1004.59 1005.00 1005.38 1005.72 1006.01 1006.28 1006.53 1006.79 1007.09 1007.44 1007.87 1008.36 1008.90 1009.47 1010.03 1010.56 1011.04 1011.45 1011.78 1012.06 1012.31 1012.56 1012.85 1013.21 1013.66 1014.22 1014.88 1015.64 1016.46 1017.33 1018.22 1019.10 1019.97 1020.80
1001.88 1001.74 1001.66 1001.67 1001.78 1001.97 1002.25 1002.59 1002.98 1003.39 1003.80 1004.20 1004.56 1004.90 1005.21 1005.52 1005.84 1006.19 1006.59 1007.04 1007.54 1008.09 1008.66 1009.23 1009.77 1010.26 1010.70 1011.09 1011.43 1011.77 1012.10 1012.48 1012.92 1013.44 1014.05 1014.74 1015.50 1016.31 1017.16 1018.01 1018.85 1019.68 1020.48
1000.93 1000.77 1000.66 1000.63 1000.69 1000.83 1001.06 1001.36 1001.72 1002.11 1002.52 1002.92 1003.32 1003.71 1004.08 1004.45 1004.84 1005.25 1005.69 1006.18 1006.70 1007.25 1007.82 1008.38 1008.92 1009.43 1009.90 1010.33 1010.74 1011.14 1011.56 1012.02 1012.54 1013.12 1013.77 1014.49 1015.26 1016.07 1016.90 1017.73 1018.56 1019.37 1020.17
999.96 999.77 999.63 999.56 999.57 999.66 999.83 1000.09 1000.41 1000.78 1001.19 1001.62 1002.06 1002.51 1002.95 1003.40 1003.85 1004.33 1004.82 1005.34 1005.89 1006.44 1007.00 1007.55 1008.09 1008.60 1009.09 1009.55 1010.01 1010.47 1010.96 1011.48 1012.06 1012.69 1013.39 1014.13 1014.92 1015.73 1016.56 1017.39 1018.21 1019.04 1019.86
998.91 998.70 998.54 998.43 998.39 998.44 998.57 998.79 999.09 999.46 999.89 1000.36 1000.85 1001.36 1001.89 1002.41 1002.95 1003.49 1004.04 1004.59 1005.15 1005.70 1006.25 1006.79 1007.32 1007.82 1008.32 1008.80 1009.29 1009.80 1010.33 1010.91 1011.53 1012.20 1012.92 1013.69 1014.49 1015.31 1016.14 1016.99 1017.83 1018.68 1019.54
997.75 997.53 997.35 997.22 997.16 997.18 997.29 997.50 997.81 998.20 998.66 999.18 999.74 1000.34 1000.94 1001.56 1002.16 1002.77 1003.36 1003.95 1004.52 1005.07 1005.61 1006.13 1006.64 1007.14 1007.63 1008.12 1008.63 1009.16 1009.72 1010.33 1010.98 1011.68 1012.43 1013.21 1014.02 1014.85 1015.70 1016.57 1017.44 1018.33 1019.24
996.48 996.25 996.05 995.91 995.85 995.88 996.01 996.24 996.57 997.01 997.53 998.12 998.77 999.45 1000.14 1000.84 1001.52 1002.19 1002.82 1003.43 1004.01 1004.56 1005.09 1005.59 1006.07 1006.55 1007.03 1007.52 1008.03 1008.58 1009.16 1009.79 1010.47 1011.19 1011.95 1012.74 1013.57 1014.42 1015.28 1016.17 1017.08 1018.01 1018.95
995.11 994.86 994.66 994.53 994.49 994.55 994.72 995.00 995.40 995.91 996.51 997.19 997.92 998.69 999.48 1000.25 1001.00 1001.72 1002.39 1003.02 1003.60 1004.15 1004.65 1005.13 1005.59 1006.05 1006.52 1007.01 1007.52 1008.08 1008.68 1009.32 1010.01 1010.75 1011.53 1012.34 1013.18 1014.04 1014.93 1015.84 1016.77 1017.73 1018.71
993.66 993.41 993.21 993.11 993.10 993.21 993.44 993.80 994.28 994.88 995.58 996.35 997.18 998.04 998.91 999.76 1000.57 1001.33 1002.03 1002.67 1003.25 1003.78 1004.27 1004.73 1005.17 1005.62 1006.07 1006.56 1007.08 1007.65 1008.26 1008.92 1009.64 1010.39 1011.19 1012.01 1012.87 1013.75 1014.65 1015.57 1016.52 1017.50 1018.51
992.21 991.95 991.77 991.68 991.72 991.89 992.20 992.65 993.23 993.92 994.72 995.59 996.52 997.46 998.40 999.31 1000.16 1000.96 1001.68 1002.33 1002.91 1003.43 1003.90 1004.35 1004.78 1005.21 1005.67 1006.15 1006.69 1007.27 1007.91 1008.59 1009.33 1010.11 1010.93 1011.78 1012.65 1013.54 1014.45 1015.38 1016.34 1017.32 1018.33
990.83 990.56 990.38 990.34 990.42 990.66 991.05 991.58 992.25 993.04 993.92 994.89 995.89 996.90 997.90 998.86 999.75 1000.57 1001.31 1001.96 1002.54 1003.05 1003.52 1003.96 1004.38 1004.82 1005.28 1005.78 1006.34 1006.94 1007.61 1008.32 1009.09 1009.90 1010.74 1011.60 1012.49 1013.39 1014.31 1015.24 1016.19 1017.16 1018.16
989.59 989.31 989.15 989.13 989.27 989.56 990.02 990.62 991.37 992.24 993.20 994.22 995.29 996.36 997.40 998.38 999.30 1000.14 1000.89 1001.55 1002.13 1002.65 1003.12 1003.56 1004.00 1004.45 1004.93 1005.45 1006.03 1006.67 1007.36 1008.11 1008.90 1009.74 1010.60 1011.48 1012.38 1013.28 1014.19 1015.12 1016.05 1017.00 1017.98
988.55 988.27 988.13 988.15 988.32 988.67 989.17 989.84 990.64 991.56 992.56 993.63 994.73 995.83 996.89 997.90 998.83 999.68 1000.44 1001.11 1001.70 1002.23 1002.72 1003.18 1003.64 1004.11 1004.62 1005.18 1005.79 1006.46 1007.18 1007.96 1008.77 1009.63 1010.50 1011.40 1012.29 1013.19 1014.09 1015.00 1015.91 1016.84 1017.78
Thickness
5511 5510 5509 5507 5506 5504 5502 5500 5500 5499 5497 5496 5494 5493 5490 5488 5486 5483 5482 5480 5479 5477 5476 5474 5473 5472 5471 5470 5469 5469 5468 5467 5468 5471 5472 5472 5472 5471 5472 5472 5473 5474 5475
5504 5502 5500 5499 5498 5496 5494 5493 5491 5490 5489 5487 5486 5484 5483 5480 5478 5476 5474 5472 5470 5469 5468 5465 5464 5462 5461 5461 5460 5459 5459 5459 5458 5460 5461 5461 5462 5462 5463 5464 5464 5465 5466
5495 5493 5492 5490 5489 5488 5486 5485 5483 5482 5481 5479 5478 5477 5475 5473 5470 5468 5466 5464 5463 5462 5460 5458 5456 5454 5453 5452 5452 5451 5450 5451 5450 5450 5451 5451 5452 5453 5454 5454 5455 5456 5457
5486 5484 5483 5481 5480 5479 5478 5477 5476 5474 5473 5472 5471 5469 5467 5465 5463 5461 5459 5457 5455 5453 5452 5450 5449 5447 5446 5445 5444 5443 5442 5441 5440 5440 5440 5442 5442 5444 5444 5444 5446 5447 5449
5477 5475 5474 5473 5472 5470 5469 5469 5468 5466 5465 5464 5463 5461 5459 5457 5456 5454 5452 5449 5447 5445 5444 5442 5442 5441 5440 5439 5438 5436 5435 5433 5432 5431 5431 5432 5433 5434 5434 5435 5436 5439 5441
5468 5466 5465 5464 5463 5461 5461 5460 5459 5458 5457 5455 5454 5453 5451 5450 5448 5447 5444 5441 5439 5437 5435 5435 5434 5434 5433 5432 5431 5430 5429 5426 5425 5424 5424 5424 5426 5426 5426 5427 5427 5429 5432
5460 5458 5456 5455 5454 5453 5452 5451 5450 5449 5448 5447 5445 5444 5442 5441 5440 5438 5436 5433 5430 5428 5427 5426 5426 5426 5425 5423 5423 5422 5421 5420 5420 5419 5418 5418 5419 5419 5419 5419 5420 5420 5422
5451 5449 5448 5446 5446 5445 5443 5442 5441 5440 5440 5439 5437 5435 5434 5432 5431 5430 5428 5425 5422 5421 5419 5418 5417 5417 5417 5416 5414 5414 5413 5412 5413 5413 5413 5413 5413 5413 5413 5413 5413 5413 5415
5443 5441 5439 5438 5437 5435 5434 5434 5432 5432 5432 5430 5429 5427 5425 5424 5423 5422 5421 5418 5415 5413 5412 5411 5410 5410 5411 5409 5408 5406 5406 5406 5406 5406 5406 5407 5407 5407 5407 5406 5405 5405 5407
5435 5433 5432 5430 5429 5427 5426 5425 5424 5423 5423 5422 5421 5419 5417 5416 5415 5415 5413 5411 5409 5407 5405 5404 5404 5403 5403 5403 5401 5400 5399 5400 5399 5399 5399 5399 5399 5400 5400 5399 5399 5398 5399
5427 5425 5424 5422 5421 5419 5418 5417 5416 5414 5414 5413 5412 5411 5410 5409 5408 5407 5406 5403 5402 5400 5398 5398 5397 5397 5397 5397 5396 5395 5395 5394 5393 5393 5392 5392 5393 5393 5393 5393 5392 5392 5392
5419 5417 5416 5414 5413 5412 5409 5408 5406 5405 5404 5403 5403 5402 5402 5402 5401 5400 5398 5397 5395 5393 5392 5391 5391 5391 5391 5391 5390 5390 5389 5388 5387 5386 5386 5386 5386 5387 5387 5387 5386 5387 5388
5412 5410 5408 5407 5405 5404 5402 5400 5398 5396 5396 5395 5394 5394 5394 5393 5392 5392 5391 5389 5388 5386 5385 5385 5385 5385 5385 5384 5383 5383 5382 5381 5381 5380 5380 5381 5381 5380 5380 5380 5381 5381 5382
5404 5403 5401 5399 5398 5396 5395 5393 5391 5390 5389 5388 5387 5386 5386 5385 5384 5384 5383 5382 5380 5379 5378 5377 5377 5377 5377 5377 5377 5376 5376 5376 5375 5374 5374 5374 5374 5373 5374 5374 5374 5375 5376
5397 5396 5394 5392 5390 5389 5388 5386 5385 5384 5383 5382 5381 5379 5378 5378 5379 5378 5376 5375 5373 5372 5371 5369 5369 5369 5369 5370 5370 5370 5370 5369 5369 5369 5368 5367 5368 5368 5368 5368 5368 5368 5369
5390 5389 5387 5385 5383 5381 5380 5379 5379 5378 5378 5377 5375 5374 5374 5374 5373 5372 5371 5371 5369 5367 5365 5364 5363 5363 5364 5364 5364 5364 5364 5364 5364 5363 5362 5362 5362 5362 5362 5363 5362 5363 5363
5383 5381 5379 5378 5376 5374 5373 5372 5371 5372 5371 5370 5370 5369 5368 5368 5367 5366 5366 5365 5364 5362 5360 5359 5359 5359 5359 5359 5358 5358 5358 5358 5358 5357 5357 5357 5357 5357 5357 5357 5357 5357 5357
5376 5375 5373 5371 5369 5368 5367 5365 5364 5364 5363 5363 5364 5363 5362 5362 5361 5360 5360 5358 5357 5356 5355 5355 5355 5355 5355 5354 5354 5353 5353 5353 5352 5352 5352 5352 5352 5352 5351 5351 5351 5351 5351
5370 5368 5366 5365 5364 5362 5361 5360 5359 5358 5357 5356 5356 5356 5356 5355 5354 5354 5353 5350 5350 5350 5350 5350 5350 5350 5350 5350 5349 5349 5348 5348 5347 5347 5347 5346 5346 5347 5346 5346 5346 5346 5347
5365 5364 5362 5360 5358 5357 5355 5354 5353 5352 5351 5350 5349 5349 5348 5346 5346 5345 5345 5344 5344 5344 5344 5345 5345 5345 5345 5345 5345 5344 5344 5343 5343 5342 5342 5342 5342 5342 5341 5341 5341 5342 5343
5359 5358 5357 5355 5353 5351 5350 5348 5348 5346 5345 5344 5343 5342 5342 5340 5339 5338 5338 5338 5339 5339 5340 5340 5340 5341 5341 5341 5340 5340 5340 5339 5339 5338 5338 5338 5338 5338 5337 5337 5337 5338 5339
5353 5352 5350 5349 5347 5346 5344 5343 5342 5340 5339 5338 5337 5336 5336 5334 5333 5332 5333 5333 5334 5334 5335 5335 5336 5336 5337 5337 5337 5337 5336 5336 5335 5335 5335 5334 5334 5334 5334 5334 5334 5334 5335
5347 5346 5344 5343 5342 5341 5339 5337 5336 5334 5333 5332 5331 5330 5329 5328 5327 5327 5328 5328 5329 5329 5330 5331 5331 5332 5332 5333 5333 5333 5333 5332 5332 5332 5332 5331 5330 5329 5329 5329 5329 5330 5331
5341 5340 5338 5337 5336 5334 5333 5331 5330 5328 5327 5326 5325 5324 5324 5323 5323 5323 5323 5323 5323 5324 5325 5326 5327 5328 5328 5329 5329 5329 5329 5329 5329 5328 5328 5327 5327 5326 5325 5325 5325 5325 5326
5335 5333 5332 5331 5329 5328 5327 5326 5324 5322 5321 5321 5320 5319 5319 5319 5318 5318 5318 5318 5319 5320 5320 5321 5322 5323 5324 5324 5324 5325 5325 5325 5325 5324 5324 5323 5322 5322 5322 5321 5321 5321 5322
5329 5327 5326 5325 5324 5323 5322 5320 5319 5317 5316 5316 5315 5314 5314 5314 5313 5314 5314 5314 5314 5315 5315 5317 5318 5319 5319 5319 5319 5320 5320 5320 5320 5320 5319 5319 5318 5318 5318 5318 5317 5318 5318